FW3855 Weather Reports


time (UTC)temp
F
wind
direction
speed
knots
gust
knots
rain 1hr
in
rain 24hr
in
rain mn
in
humidity
%
barometer
mb
20260507190146 78 42 2.6 7.0 0.00 0.00 0.00 2 1018.6
20260507185645 78 316 2.6 7.0 0.00 0.00 0.00 3 1018.8
20260507185147 77 298 3.5 10.4 0.00 0.00 0.00 3 1018.8
20260507184645 77 304 3.5 11.3 0.00 0.00 0.00 3 1018.8
20260507184145 78 335 4.3 11.3 0.00 0.00 0.00 3 1018.8
20260507183646 78 326 2.6 7.8 0.00 0.00 0.00 3 1018.8
20260507183149 78 270 3.5 6.1 0.00 0.00 0.00 4 1018.8
20260507182643 77 33 3.5 13.9 0.00 0.00 0.00 5 1018.8
20260507181632 76 84 2.6 7.0 0.00 0.00 0.00 5 1018.9
20260507181129 76 77 2.6 7.0 0.00 0.00 0.00 5 1018.9
20260507180619 77 132 2.6 9.6 0.00 0.00 0.00 5 1019.0
20260507180115 76 91 2.6 9.6 0.00 0.00 0.00 5 1019.0
20260507175608 76 139 1.7 6.1 0.00 0.00 0.00 5 1019.1
20260507175101 76 80 1.7 6.1 0.00 0.00 0.00 4 1019.2
20260507174554 76 237 1.7 5.2 0.00 0.00 0.00 5 1019.2
20260507174047 75 231 2.6 6.1 0.00 0.00 0.00 6 1019.3
20260507173546 75 88 2.6 6.1 0.00 0.00 0.00 6 1019.3
20260507173046 75 41 2.6 6.1 0.00 0.00 0.00 6 1019.2
20260507172546 74 101 3.5 7.8 0.00 0.00 0.00 7 1019.2
20260507172047 74 11 3.5 7.8 0.00 0.00 0.00 6 1019.3
20260507171545 74 354 2.6 7.0 0.00 0.00 0.00 8 1019.2
20260507170550 74 27 2.6 6.1 0.00 0.00 0.00 9 1019.3
20260507165546 73 293 1.7 4.3 0.00 0.00 0.00 10 1019.4
20260507165049 73 19 1.7 4.3 0.00 0.00 0.00 10 1019.4
20260507164546 73 309 0.9 4.3 0.00 0.00 0.00 10 1019.4
20260507164047 72 349 0.9 4.3 0.00 0.00 0.00 10 1019.4
20260507163543 71 342 2.6 7.0 0.00 0.00 0.00 11 1019.4
20260507163042 71 320 2.6 7.0 0.00 0.00 0.00 11 1019.6
20260507162541 71 8 1.7 3.5 0.00 0.00 0.00 11 1019.4
20260507162043 70 113 1.7 4.3 0.00 0.00 0.00 11 1019.7
20260507161541 70 13 2.6 4.3 0.00 0.00 0.00 11 1019.8
20260507161036 70 22 2.6 6.1 0.00 0.00 0.00 11 1019.7
20260507160531 70 347 1.7 6.1 0.00 0.00 0.00 11 1019.8
20260507160022 70 32 1.7 4.3 0.00 0.00 0.00 11 1019.8
20260507155514 70 337 1.7 5.2 0.00 0.00 0.00 11 1019.9
20260507155011 69 37 1.7 5.2 0.00 0.00 0.00 12 1019.9
20260507154509 69 73 1.7 7.0 0.00 0.00 0.00 12 1020.0
20260507153959 68 79 2.6 7.0 0.00 0.00 0.00 12 1020.0
20260507152947 68 98 2.6 6.1 0.00 0.00 0.00 11 1020.0
20260507151935 67 105 1.7 6.1 0.00 0.00 0.00 10 1020.0
20260507151429 67 77 1.7 5.2 0.00 0.00 0.00 9 1020.0
20260507150923 67 320 1.7 5.2 0.00 0.00 0.00 10 1020.0
20260507150417 67 352 0.9 4.3 0.00 0.00 0.00 10 1020.1
20260507145910 67 84 0.9 3.5 0.00 0.00 0.00 9 1020.1
20260507145405 66 326 0.9 5.2 0.00 0.00 0.00 9 1020.1
20260507144859 66 18 0.9 5.2 0.00 0.00 0.00 9 1020.1
20260507144353 66 16 0.9 3.5 0.00 0.00 0.00 9 1020.1
20260507143846 65 59 0.0 1.7 0.00 0.00 0.00 9 1020.1
20260507142835 64 94 0.9 5.2 0.00 0.00 0.00 10 1020.2
20260507142329 64 172 0.9 3.5 0.00 0.00 0.00 10 1020.1
20260507141822 64 70 0.9 2.6 0.00 0.00 0.00 10 1020.1
20260507141316 64 89 0.9 2.6 0.00 0.00 0.00 10 1020.1
20260507140811 64 88 0.0 1.7 0.00 0.00 0.00 10 1020.1
20260507140304 63 97 0.0 2.6 0.00 0.00 0.00 11 1020.0
20260507135252 62 89 0.9 4.3 0.00 0.00 0.00 11 1020.1
20260507134746 62 103 0.0 3.5 0.00 0.00 0.00 11 1020.0
20260507133735 61 109 0.0 0.9 0.00 0.00 0.00 11 1019.9
20260507133229 60 174 0.0 0.9 0.00 0.00 0.00 12 1019.9
20260507132722 59 160 0.0 1.7 0.00 0.00 0.00 12 1019.9
20260507132218 58 95 0.0 1.7 0.00 0.00 0.00 13 1019.8
20260507131712 56 205 0.0 0.9 0.00 0.00 0.00 15 1019.7
20260507131204 55 176 0.0 0.9 0.00 0.00 0.00 15 1019.6
20260507130154 55 176 0.0 1.7 0.00 0.00 0.00 15 1019.6
20260507125647 54 177 0.0 0.9 0.00 0.00 0.00 15 1019.6
20260507125141 53 141 0.0 1.7 0.00 0.00 0.00 16 1019.4
20260507124130 52 153 0.9 2.6 0.00 0.00 0.00 17 1019.4
20260507123623 50 116 0.0 2.6 0.00 0.00 0.00 18 1019.4
20260507123119 50 206 0.0 0.9 0.00 0.00 0.00 18 1019.4
20260507122611 50 194 0.0 0.9 0.00 0.00 0.00 18 1019.3
20260507121052 51 204 0.0 0.9 0.00 0.00 0.00 18 1019.4
20260507120546 51 207 0.0 0.9 0.00 0.00 0.00 18 1019.4
20260507120044 50 215 0.0 1.7 0.00 0.00 0.00 19 1019.3
20260507115541 50 215 0.0 1.7 0.00 0.00 0.00 19 1019.4
20260507114537 50 202 0.0 0.9 0.00 0.00 0.00 19 1019.4
20260507114045 51 183 0.0 0.9 0.00 0.00 0.00 18 1019.4
20260507113536 51 163 0.0 0.9 0.00 0.00 0.00 18 1019.3
20260507112535 52 120 0.0 1.7 0.00 0.00 0.00 17 1019.3
20260507111029 53 101 0.9 2.6 0.00 0.00 0.00 16 1019.3
20260507105025 54 162 0.9 1.7 0.00 0.00 0.00 16 1019.2
20260507104527 56 161 0.9 1.7 0.00 0.00 0.00 15 1019.3
20260507104029 57 174 0.9 1.7 0.00 0.00 0.00 15 1019.3
20260507103522 57 186 0.9 2.6 0.00 0.00 0.00 14 1019.4
20260507103020 57 169 1.7 2.6 0.00 0.00 0.00 14 1019.4
20260507102021 58 160 0.9 5.2 0.00 0.00 0.00 14 1019.4
20260507101522 58 169 0.9 5.2 0.00 0.00 0.00 13 1019.6
20260507101021 58 141 0.9 2.6 0.00 0.00 0.00 13 1019.6
20260507100522 58 157 0.9 2.6 0.00 0.00 0.00 13 1019.4
20260507100022 57 193 0.0 2.6 0.00 0.00 0.00 13 1019.4
20260507095523 57 176 0.0 1.7 0.00 0.00 0.00 13 1019.4
20260507094517 59 158 0.9 1.7 0.00 0.00 0.00 12 1019.4
20260507094017 59 192 0.9 1.7 0.00 0.00 0.00 12 1019.3
20260507093517 59 179 0.9 1.7 0.00 0.00 0.00 12 1019.2
20260507093017 59 184 0.9 2.6 0.00 0.00 0.00 12 1019.3
20260507092517 60 169 0.9 2.6 0.00 0.00 0.00 13 1019.2
20260507092018 60 195 1.7 2.6 0.00 0.00 0.00 12 1019.3
20260507091517 60 167 0.9 2.6 0.00 0.00 0.00 13 1019.3
20260507091018 59 162 0.9 2.6 0.00 0.00 0.00 14 1019.2
20260507085516 59 155 0.9 2.6 0.00 0.00 0.00 12 1019.3
20260507085018 58 162 0.9 1.7 0.00 0.00 0.00 13 1019.3
20260507084519 57 172 0.0 2.6 0.00 0.00 0.00 16 1019.3
20260507084017 58 171 0.9 2.6 0.00 0.00 0.00 16 1019.4
20260507083518 57 174 0.9 2.6 0.00 0.00 0.00 17 1019.4
20260507083016 57 170 0.9 2.6 0.00 0.00 0.00 18 1019.4
20260507082516 56 172 0.9 2.6 0.00 0.00 0.00 17 1019.4
20260507081515 57 179 0.9 1.7 0.00 0.00 0.00 16 1019.3
20260507081013 56 176 0.9 1.7 0.00 0.00 0.00 16 1019.3
20260507080515 56 205 0.0 0.9 0.00 0.00 0.00 17 1019.4
20260507075515 57 174 0.9 1.7 0.00 0.00 0.00 16 1019.2
20260507075008 57 180 0.0 1.7 0.00 0.00 0.00 16 1019.3
20260507074508 58 173 0.0 0.9 0.00 0.00 0.00 16 1019.3
20260507074006 58 169 0.0 0.9 0.00 0.00 0.00 16 1019.3
20260507073509 58 167 0.0 1.7 0.00 0.00 0.00 16 1019.2
20260507072503 58 169 0.9 1.7 0.00 0.00 0.00 17 1019.2
20260507072007 58 178 0.9 1.7 0.00 0.00 0.00 17 1019.2
20260507071501 58 189 0.9 1.7 0.00 0.00 0.00 17 1019.2
20260507070455 58 194 0.9 1.7 0.00 0.00 0.00 18 1019.2
20260507065954 59 195 0.0 1.7 0.00 0.00 0.00 18 1019.2
20260507065450 59 193 0.0 1.7 0.00 0.00 0.00 18 1019.2
20260507064954 60 179 0.0 0.0 0.00 0.00 0.00 17 1019.2
20260507064447 61 179 0.0 0.0 0.00 0.00 0.00 17 1019.1
20260507063946 62 164 0.0 0.0 0.00 0.00 0.00 16 1019.0
20260507062947 64 257 0.0 2.6 0.00 0.00 0.00 16 1019.0
20260507061948 63 275 0.0 1.7 0.00 0.00 0.00 18 1018.8
20260507061446 63 235 0.0 3.5 0.00 0.00 0.00 19 1018.8
20260507060947 64 276 0.9 3.5 0.00 0.00 0.00 19 1018.8
20260507060446 63 249 0.9 3.5 0.00 0.00 0.00 19 1018.8
20260507055943 63 264 0.0 2.6 0.00 0.00 0.00 19 1018.8
20260507055450 64 271 0.0 2.6 0.00 0.00 0.00 20 1018.6
20260507054949 63 294 0.9 1.7 0.00 0.00 0.00 20 1018.8
20260507054443 63 231 0.9 1.7 0.00 0.00 0.00 20 1018.6
20260507053441 63 274 0.0 1.7 0.00 0.00 0.00 21 1018.6
20260507052941 63 252 0.0 1.7 0.00 0.00 0.00 21 1018.6
20260507051944 64 221 0.0 0.9 0.00 0.00 0.00 21 1018.5
20260507050930 64 288 0.0 1.7 0.00 0.00 0.00 20 1018.5
20260507050423 65 217 0.0 1.7 0.00 0.00 0.00 20 1018.5
20260507045918 65 285 0.0 2.6 0.00 0.00 0.00 19 1018.4
20260507044906 66 294 0.9 3.5 0.00 0.00 0.00 19 1018.4
20260507044400 66 249 0.9 3.5 0.00 0.00 0.00 19 1018.3
20260507043853 66 274 0.9 3.5 0.00 0.00 0.00 19 1018.3
20260507043347 66 266 0.9 3.5 0.00 0.00 0.00 19 1018.2
20260507042842 67 304 0.9 3.5 0.00 0.00 0.00 19 1018.1
20260507041829 67 290 0.9 7.0 0.00 0.00 0.00 18 1018.1
20260507041324 67 313 0.9 7.0 0.00 0.00 0.00 18 1018.0
20260507040818 67 315 0.9 6.1 0.00 0.00 0.00 18 1018.0
20260507040312 67 282 0.9 5.2 0.00 0.00 0.00 18 1018.0
20260507035805 67 313 0.9 5.2 0.00 0.00 0.00 18 1017.8
20260507035305 67 286 0.9 3.5 0.00 0.00 0.00 18 1017.8
20260507034754 67 269 0.9 5.2 0.00 0.00 0.00 18 1017.8
20260507034247 67 283 0.9 5.2 0.00 0.00 0.00 18 1017.7
20260507033744 67 275 0.9 5.2 0.00 0.00 0.00 18 1017.6
20260507032224 67 299 1.7 7.0 0.00 0.00 0.00 17 1017.4
20260507031720 68 319 3.5 7.8 0.00 0.00 0.00 17 1017.4
20260507031213 68 277 4.3 11.3 0.00 0.00 0.00 17 1017.3
20260507030705 68 263 4.3 11.3 0.00 0.00 0.00 17 1017.3
20260507030159 68 262 4.3 10.4 0.00 0.00 0.00 17 1017.2
20260507025655 68 283 3.5 10.4 0.00 0.00 0.00 17 1017.0
20260507025148 68 283 3.5 7.8 0.00 0.00 0.00 17 1017.0
20260507024649 68 288 3.5 7.8 0.00 0.00 0.00 17 1016.9
20260507024148 69 288 4.3 12.2 0.00 0.00 0.00 17 1016.9
20260507023650 69 277 4.3 12.2 0.00 0.00 0.00 16 1016.9
20260507022647 69 317 5.2 11.3 0.00 0.00 0.00 16 1016.8
20260507022148 69 289 5.2 13.0 0.00 0.00 0.00 16 1016.8
20260507021647 69 260 5.2 13.0 0.00 0.00 0.00 16 1016.8
20260507021147 69 307 4.3 8.7 0.00 0.00 0.00 16 1016.8
20260507020145 70 285 5.2 12.2 0.00 0.00 0.00 16 1016.7
20260507015646 70 340 4.3 12.2 0.00 0.00 0.00 15 1016.6
20260507014644 71 293 3.5 7.0 0.00 0.00 0.00 14 1016.6
20260507014144 73 303 3.5 8.7 0.00 0.00 0.00 14 1016.6
20260507013643 73 283 3.5 8.7 0.00 0.00 0.00 13 1016.5
20260507013152 73 310 4.3 8.7 0.00 0.00 0.00 13 1016.6
20260507012653 73 282 4.3 9.6 0.00 0.00 0.00 13 1016.6
20260507011641 74 30 4.3 9.6 0.00 0.00 0.00 13 1016.6
20260507011128 74 323 4.3 9.6 0.00 0.00 0.00 12 1016.5
20260507010621 74 295 2.6 9.6 0.00 0.00 0.00 12 1016.5
20260507010119 74 249 3.5 8.7 0.00 0.00 0.00 11 1016.5
20260507005621 74 339 4.3 8.7 0.00 0.00 0.00 12 1016.6
20260507005126 74 314 3.5 8.7 0.00 0.00 0.00 11 1016.6
20260507003616 75 286 4.3 7.8 0.00 0.00 0.00 10 1016.6
20260507003116 75 329 3.5 7.8 0.00 0.00 0.00 10 1016.5
20260507002616 75 314 3.5 7.8 0.00 0.00 0.00 10 1016.5
20260507002112 75 309 3.5 7.8 0.00 0.00 0.00 10 1016.4
20260507001616 75 247 4.3 9.6 0.00 0.00 0.00 10 1016.4
20260507001114 75 281 3.5 9.6 0.00 0.00 0.00 10 1016.2
20260507000610 75 296 3.5 7.8 0.00 0.00 0.00 10 1016.4
20260507000112 75 35 4.3 10.4 0.00 0.00 0.00 10 1016.2
20260506235111 75 315 4.3 12.2 0.00 0.00 0.00 11 1016.1
20260506234616 75 29 4.3 12.2 0.00 0.00 0.00 10 1016.0
20260506233612 76 261 2.6 7.8 0.00 0.00 0.00 11 1016.2
20260506233110 75 280 3.5 10.4 0.00 0.00 0.00 11 1016.1
20260506232610 75 146 4.3 10.4 0.00 0.00 0.00 12 1016.2
20260506232110 75 340 3.5 11.3 0.00 0.00 0.00 12 1016.2
20260506231610 74 22 4.3 11.3 0.00 0.00 0.00 12 1016.4
20260506231112 74 308 3.5 8.7 0.00 0.00 0.00 12 1016.5
20260506230606 74 355 4.3 8.7 0.00 0.00 0.00 12 1016.5
20260506230106 74 352 5.2 13.0 0.00 0.00 0.00 13 1016.5
20260506225606 74 35 5.2 13.0 0.00 0.00 0.00 13 1016.6
20260506225109 74 345 4.3 9.6 0.00 0.00 0.00 13 1016.6
20260506224611 74 311 4.3 8.7 0.00 0.00 0.00 13 1016.7
20260506224110 74 252 2.6 9.6 0.00 0.00 0.00 13 1016.6
20260506223609 74 323 3.5 11.3 0.00 0.00 0.00 13 1016.7
20260506222610 74 308 3.5 9.6 0.00 0.00 0.00 13 1016.8
20260506222108 74 37 2.6 9.6 0.00 0.00 0.00 13 1016.8
20260506221606 73 89 3.5 8.7 0.00 0.00 0.00 13 1016.8
20260506221108 74 32 3.5 9.6 0.00 0.00 0.00 14 1016.9
20260506220607 73 295 4.3 9.6 0.00 0.00 0.00 14 1017.0
20260506220107 73 314 4.3 13.9 0.00 0.00 0.00 15 1017.2
20260506215606 73 265 5.2 13.9 0.00 0.00 0.00 14 1017.3
20260506215110 73 291 5.2 13.0 0.00 0.00 0.00 15 1017.3
20260506214603 73 27 5.2 11.3 0.00 0.00 0.00 14 1017.4
20260506214102 73 300 5.2 12.2 0.00 0.00 0.00 15 1017.4
20260506213600 73 311 4.3 12.2 0.00 0.00 0.00 15 1017.4
20260506212601 73 30 4.3 10.4 0.00 0.00 0.00 14 1017.5
20260506212100 73 313 5.2 10.4 0.00 0.00 0.00 14 1017.5
20260506211559 73 316 3.5 10.4 0.00 0.00 0.00 14 1017.6
20260506211100 72 304 4.3 11.3 0.00 0.00 0.00 16 1017.5
20260506210600 72 215 4.3 11.3 0.00 0.00 0.00 15 1017.5
20260506210101 72 242 3.5 8.7 0.00 0.00 0.00 15 1017.5
20260506205559 71 292 3.5 7.8 0.00 0.00 0.00 15 1017.6
20260506205059 71 252 2.6 7.8 0.00 0.00 0.00 16 1017.6
20260506204050 72 354 2.6 7.8 0.00 0.00 0.00 15 1017.7
20260506203545 71 39 3.5 8.7 0.00 0.00 0.00 16 1017.7
20260506203044 72 295 3.5 8.7 0.00 0.00 0.00 15 1017.8
20260506202041 71 74 4.3 8.7 0.00 0.00 0.00 16 1017.7
20260506201539 71 317 3.5 10.4 0.00 0.00 0.00 17 1017.7
20260506201039 71 14 2.6 10.4 0.00 0.00 0.00 16 1017.8
20260506200545 71 36 2.6 11.3 0.00 0.00 0.00 16 1018.0
20260506195535 70 301 3.5 9.6 0.00 0.00 0.00 17 1018.1
20260506195036 70 302 3.5 12.2 0.00 0.00 0.00 17 1018.1
20260506194034 69 324 4.3 12.2 0.00 0.00 0.00 18 1018.1
20260506193534 69 252 3.5 8.7 0.00 0.00 0.00 18 1018.2
20260506193034 70 217 2.6 8.7 0.00 0.00 0.00 17 1018.2
20260506192033 69 309 3.5 11.3 0.00 0.00 0.00 19 1018.2
20260506191035 69 326 3.5 7.8 0.00 0.00 0.00 18 1018.3